KD0JCP-10 Weather Reports


time (UTC)temp
F
wind
direction
speed
knots
gust
knots
rain 1hr
in
rain 24hr
in
rain mn
in
humidity
%
barometer
mb
20260906195332 84 121 0.9 4.3 0.00 0.02 0.02 62 1012.9
20260906194832 84 111 0.9 3.5 0.00 0.02 0.02 65 1012.8
20260906194332 84 79 1.7 2.6 0.00 0.02 0.02 65 1012.8
20260906193832 84 116 1.7 6.1 0.00 0.02 0.02 65 1012.8
20260906193332 84 63 1.7 4.3 0.00 0.02 0.02 63 1012.7
20260906192832 84 74 1.7 5.2 0.00 0.02 0.02 64 1012.7
20260906192332 84 109 2.6 2.6 0.00 0.02 0.02 64 1012.8
20260906191832 84 66 3.5 7.0 0.00 0.02 0.02 64 1012.8
20260906191332 83 81 3.5 7.0 0.00 0.02 0.02 65 1012.8
20260906190832 83 72 1.7 8.7 0.00 0.02 0.02 65 1012.8
20260906190332 83 97 1.7 2.6 0.00 0.02 0.02 63 1012.8
20260906185832 83 94 1.7 2.6 0.00 0.02 0.02 64 1013.1
20260906185332 83 76 1.7 2.6 0.00 0.02 0.02 65 1013.2
20260906184832 83 62 0.9 6.1 0.00 0.02 0.02 64 1013.1
20260906184332 83 113 0.9 3.5 0.00 0.02 0.02 63 1013.1
20260906183832 83 82 1.7 5.2 0.00 0.02 0.02 63 1013.0
20260906183332 83 72 1.7 3.5 0.00 0.02 0.02 63 1013.0
20260906182833 83 96 1.7 7.0 0.00 0.02 0.02 62 1013.0
20260906182333 83 96 1.7 5.2 0.00 0.02 0.02 60 1013.0
20260906181833 82 45 1.7 3.5 0.00 0.02 0.02 63 1013.1
20260906181333 82 107 1.7 5.2 0.00 0.02 0.02 64 1013.1
20260906180833 82 98 1.7 4.3 0.00 0.02 0.02 63 1013.0
20260906180333 81 107 1.7 2.6 0.00 0.02 0.02 63 1013.0
20260906175833 81 69 3.5 7.0 0.00 0.02 0.02 65 1013.1
20260906175333 80 106 2.6 7.8 0.00 0.02 0.02 66 1013.1
20260906174833 80 82 1.7 4.3 0.00 0.02 0.02 67 1013.1
20260906174333 80 58 1.7 4.3 0.00 0.02 0.02 67 1013.1
20260906173833 79 123 0.9 2.6 0.00 0.02 0.02 70 1013.1
20260906173333 78 133 0.0 2.6 0.00 0.02 0.02 68 1013.2
20260906172833 78 158 0.0 0.9 0.00 0.02 0.02 69 1013.3
20260906172333 78 158 0.0 0.9 0.00 0.02 0.02 70 1013.2
20260906171833 77 158 0.0 0.0 0.00 0.02 0.02 70 1013.3
20260906171333 77 158 0.0 0.9 0.00 0.02 0.02 71 1013.1
20260906170833 77 158 0.9 1.7 0.00 0.02 0.02 70 1013.0
20260906170333 77 127 0.9 0.9 0.00 0.02 0.02 71 1012.9
20260906165833 77 127 0.9 1.7 0.00 0.02 0.02 69 1012.6
20260906165333 77 117 0.9 3.5 0.00 0.02 0.02 69 1012.4
20260906164833 76 168 0.0 1.7 0.00 0.02 0.02 70 1012.4
20260906164333 76 168 0.9 1.7 0.00 0.02 0.02 69 1012.4
20260906163833 76 173 0.9 2.6 0.00 0.02 0.02 68 1012.5
20260906163333 76 153 0.9 3.5 0.01 0.02 0.02 69 1012.4
20260906162833 76 175 1.7 2.6 0.01 0.02 0.02 68 1012.5
20260906162333 76 159 1.7 3.5 0.01 0.02 0.02 69 1012.4
20260906161833 76 177 1.7 3.5 0.01 0.02 0.02 69 1012.5
20260906161333 76 182 1.7 3.5 0.01 0.02 0.02 68 1012.8
20260906160833 76 191 2.6 4.3 0.01 0.02 0.02 67 1012.8
20260906160333 75 102 2.6 5.2 0.01 0.02 0.02 67 1012.7
20260906155833 73 183 1.7 6.1 0.02 0.02 0.02 69 1012.7
20260906155333 72 211 0.9 4.3 0.02 0.02 0.02 72 1012.6
20260906154833 72 341 0.9 3.5 0.02 0.02 0.02 76 1012.4
20260906154333 73 338 1.7 4.3 0.02 0.02 0.02 76 1012.3
20260906153833 73 50 2.6 3.5 0.02 0.02 0.02 74 1011.6
20260906153333 73 188 3.5 5.2 0.01 0.01 0.01 71 1011.7
20260906152833 73 185 2.6 6.1 0.01 0.01 0.01 74 1011.7
20260906152333 72 171 1.7 4.3 0.01 0.01 0.01 73 1012.9
20260906151833 72 200 0.9 2.6 0.01 0.01 0.01 76 1013.2
20260906151333 72 200 0.9 2.6 0.01 0.01 0.01 78 1013.3
20260906150833 71 192 0.9 2.6 0.01 0.01 0.01 79 1013.4
20260906150333 72 192 1.7 3.5 0.01 0.01 0.01 82 1013.3
20260906145833 72 190 0.9 3.5 0.00 0.00 0.00 82 1013.6
20260906145333 72 109 0.9 1.7 0.00 0.00 0.00 83 1013.7
20260906144833 72 109 0.9 1.7 0.00 0.00 0.00 82 1013.5
20260906144333 72 246 0.9 3.5 0.00 0.00 0.00 83 1013.6
20260906143833 72 268 0.9 3.5 0.00 0.00 0.00 82 1013.9
20260906143333 72 298 0.9 2.6 0.00 0.00 0.00 83 1014.2
20260906142833 72 216 0.9 3.5 0.00 0.00 0.00 82 1014.5
20260906142333 72 255 1.7 2.6 0.00 0.00 0.00 82 1014.5
20260906141833 72 286 1.7 2.6 0.00 0.00 0.00 82 1014.4
20260906141333 72 269 1.7 7.8 0.00 0.00 0.00 82 1014.5
20260906140833 72 269 0.9 2.6 0.00 0.00 0.00 84 1014.5
20260906140333 71 284 0.9 2.6 0.00 0.00 0.00 84 1014.6
20260906135833 71 307 0.0 1.7 0.00 0.00 0.00 85 1014.7
20260906135333 71 308 0.0 1.7 0.00 0.00 0.00 85 1014.7
20260906134833 71 308 0.0 1.7 0.00 0.00 0.00 85 1014.8
20260906134333 71 313 0.0 1.7 0.00 0.00 0.00 85 1014.7
20260906133833 71 305 0.9 1.7 0.00 0.00 0.00 85 1014.5
20260906133333 71 300 0.9 5.2 0.00 0.00 0.00 85 1014.5
20260906132833 71 322 0.9 3.5 0.00 0.00 0.00 85 1014.3
20260906132333 71 315 0.9 2.6 0.00 0.00 0.00 85 1014.4
20260906131833 71 309 0.9 3.5 0.00 0.00 0.00 85 1014.4
20260906131333 71 311 0.9 2.6 0.00 0.00 0.00 84 1014.4
20260906130833 71 317 0.9 3.5 0.00 0.00 0.00 84 1014.4
20260906130333 72 316 0.9 4.3 0.00 0.00 0.00 84 1014.4
20260906125833 72 296 1.7 2.6 0.00 0.00 0.00 83 1014.3
20260906125333 72 299 1.7 7.8 0.00 0.00 0.00 83 1014.3
20260906124833 72 289 1.7 5.2 0.00 0.00 0.00 82 1014.4
20260906124333 72 319 1.7 5.2 0.00 0.00 0.00 82 1014.4
20260906123833 72 305 1.7 7.0 0.00 0.00 0.00 81 1014.4
20260906123333 73 306 1.7 4.3 0.00 0.00 0.00 80 1014.4
20260906122833 73 301 1.7 4.3 0.00 0.00 0.00 80 1014.5
20260906122333 74 285 1.7 6.1 0.00 0.00 0.00 79 1014.4
20260906121833 74 13 1.7 5.2 0.00 0.00 0.00 79 1014.4
20260906121333 74 286 1.7 6.1 0.00 0.00 0.00 78 1014.6
20260906120833 75 320 1.7 5.2 0.00 0.00 0.00 78 1014.4
20260906120333 75 316 1.7 6.1 0.00 0.00 0.00 77 1014.5
20260906115833 75 292 1.7 7.0 0.00 0.00 0.00 77 1014.4
20260906115333 75 322 1.7 4.3 0.00 0.00 0.00 76 1014.4
20260906114833 76 305 1.7 6.1 0.00 0.00 0.00 77 1014.2
20260906114333 76 306 1.7 7.8 0.00 0.00 0.00 77 1014.2
20260906113833 76 336 1.7 2.6 0.00 0.00 0.00 77 1013.9
20260906113333 76 329 0.9 2.6 0.00 0.00 0.00 76 1013.8
20260906112833 76 305 0.9 1.7 0.00 0.00 0.00 76 1013.6
20260906112333 76 304 1.7 3.5 0.00 0.00 0.00 76 1013.5
20260906111833 76 323 0.9 6.1 0.00 0.00 0.00 76 1013.5
20260906111333 76 330 0.9 1.7 0.00 0.00 0.00 76 1013.3
20260906110833 75 316 0.9 2.6 0.00 0.00 0.00 76 1013.2
20260906110333 75 296 1.7 3.5 0.00 0.00 0.00 77 1013.2
20260906105833 75 303 1.7 3.5 0.00 0.00 0.00 78 1013.0
20260906105333 75 304 0.9 4.3 0.00 0.00 0.00 78 1013.1
20260906104833 75 134 0.0 0.9 0.00 0.00 0.00 77 1012.3
20260906104333 75 134 0.0 0.0 0.00 0.00 0.00 77 1012.2
20260906103833 75 134 0.0 0.0 0.00 0.00 0.00 77 1012.1
20260906103333 75 134 0.0 0.9 0.00 0.00 0.00 77 1012.0
20260906102833 75 134 0.0 1.7 0.00 0.00 0.00 77 1011.9
20260906102333 75 134 0.0 0.9 0.00 0.00 0.00 77 1011.8
20260906101833 76 134 0.0 0.9 0.00 0.00 0.00 77 1011.8
20260906101333 75 134 0.0 1.7 0.00 0.00 0.00 77 1011.9
20260906100834 75 134 0.0 1.7 0.00 0.00 0.00 77 1011.9
20260906100333 75 134 0.0 2.6 0.00 0.00 0.00 77 1012.0
20260906095834 76 106 0.0 0.9 0.00 0.00 0.00 77 1012.0
20260906095334 76 106 0.0 2.6 0.00 0.00 0.00 77 1012.0
20260906094834 76 113 0.0 1.7 0.00 0.00 0.00 77 1012.0
20260906094334 76 113 0.0 0.0 0.00 0.00 0.00 77 1011.9
20260906093834 76 113 0.0 1.7 0.00 0.00 0.00 77 1011.9
20260906093334 76 113 0.9 3.5 0.00 0.00 0.00 77 1011.9
20260906092834 76 92 0.0 2.6 0.00 0.00 0.00 76 1011.8
20260906092334 76 113 0.9 0.9 0.00 0.00 0.00 76 1011.8
20260906091834 76 113 0.9 3.5 0.00 0.00 0.00 76 1011.7
20260906091334 76 135 0.9 6.1 0.00 0.00 0.00 77 1011.6
20260906090834 76 141 0.9 1.7 0.00 0.00 0.00 77 1011.6
20260906090334 76 139 0.9 1.7 0.00 0.00 0.00 77 1011.6
20260906085834 76 106 0.9 2.6 0.00 0.00 0.00 78 1011.6
20260906085334 76 106 0.9 2.6 0.00 0.00 0.00 78 1011.4
20260906084834 76 128 0.9 3.5 0.00 0.00 0.00 78 1011.5
20260906084334 76 101 0.9 2.6 0.00 0.00 0.00 78 1011.4
20260906083834 76 109 0.9 2.6 0.00 0.00 0.00 78 1011.6
20260906083334 76 109 0.9 1.7 0.00 0.00 0.00 78 1011.6
20260906082834 76 109 0.0 0.9 0.00 0.00 0.00 77 1011.6
20260906082334 76 140 0.0 0.9 0.00 0.00 0.00 77 1011.7
20260906081834 77 141 0.9 1.7 0.00 0.00 0.00 77 1011.7
20260906081334 77 141 0.9 1.7 0.00 0.00 0.00 77 1011.7
20260906080834 77 136 0.0 1.7 0.00 0.00 0.00 77 1011.7
20260906080334 76 129 0.0 0.0 0.00 0.00 0.00 77 1011.6
20260906075834 77 129 0.0 0.0 0.00 0.00 0.00 77 1011.7
20260906075334 76 126 0.9 1.7 0.00 0.00 0.00 77 1011.8
20260906074834 78 108 0.9 1.7 0.00 0.00 0.00 77 1011.7
20260906074334 78 108 0.9 2.6 0.00 0.00 0.00 77 1011.7
20260906073834 0 103 0.9 1.7 0.00 0.00 0.00 77 1011.7
20260906073334 77 97 0.0 1.7 0.00 0.00 0.00 77 1011.6
20260906072834 77 96 0.0 1.7 0.00 0.00 0.00 77 1011.7
20260906072334 77 109 0.9 1.7 0.00 0.00 0.00 77 1011.6
20260906071834 0 109 0.9 1.7 0.00 0.00 0.00 77 1011.7
20260906071334 77 109 0.9 1.7 0.00 0.00 0.00 76 1011.6
20260906070834 77 109 0.9 1.7 0.00 0.00 0.00 76 1011.5
20260906070334 77 118 0.9 1.7 0.00 0.00 0.00 76 1011.6
20260906065834 77 118 0.9 2.6 0.00 0.00 0.00 76 1011.5
20260906065334 78 107 0.0 2.6 0.00 0.00 0.00 76 1011.7
20260906064834 78 107 0.9 1.7 0.00 0.00 0.00 76 1011.5
20260906064334 78 107 0.9 1.7 0.00 0.00 0.00 76 1011.5
20260906063834 78 104 0.9 2.6 0.00 0.00 0.00 74 1011.4
20260906063334 79 127 0.9 1.7 0.00 0.00 0.00 75 1011.4
20260906062834 80 127 0.9 1.7 0.00 0.00 0.00 75 1011.4
20260906062334 78 127 0.9 5.2 0.00 0.00 0.00 75 1011.4
20260906061834 79 98 0.9 3.5 0.00 0.00 0.00 75 1011.5
20260906061334 79 123 0.9 1.7 0.00 0.00 0.00 74 1011.4
20260906060834 79 123 0.0 1.7 0.00 0.00 0.00 74 1011.4
20260906060334 79 123 0.9 1.7 0.00 0.00 0.00 74 1011.5
20260906055834 80 115 0.9 3.5 0.00 0.00 0.00 74 1011.5
20260906055334 80 118 0.9 7.0 0.00 0.00 0.00 74 1011.6
20260906054834 80 120 0.9 2.6 0.00 0.00 0.00 73 1011.6
20260906054334 80 130 0.0 1.7 0.00 0.00 0.00 73 1011.6
20260906053834 80 130 0.0 1.7 0.00 0.00 0.00 73 1011.6
20260906053334 80 130 0.0 2.6 0.00 0.00 0.00 73 1011.6
20260906052834 80 112 0.9 2.6 0.00 0.00 0.00 73 1011.7
20260906052334 80 112 0.9 1.7 0.00 0.00 0.00 73 1011.6
20260906051834 80 121 0.9 1.7 0.00 0.00 0.00 73 1011.8
20260906051334 80 121 0.9 2.6 0.00 0.00 0.00 73 1011.7
20260906050834 81 126 0.0 1.7 0.00 0.00 0.00 72 1011.7
20260906050334 81 126 0.9 1.7 0.00 0.00 0.00 72 1011.6
20260906045834 81 126 0.9 1.7 0.00 0.00 0.00 72 1011.5
20260906045334 81 128 0.9 3.5 0.00 0.00 0.00 72 1011.6
20260906044834 81 113 0.0 1.7 0.00 0.00 0.00 72 1011.5
20260906044334 81 113 0.0 1.7 0.00 0.00 0.00 72 1011.6
20260906043834 81 113 0.0 0.9 0.00 0.00 0.00 72 1011.6
20260906043334 81 113 0.0 0.9 0.00 0.00 0.00 72 1011.5
20260906042834 81 113 0.9 1.7 0.00 0.00 0.00 72 1011.5
20260906042334 81 113 0.0 2.6 0.00 0.00 0.00 72 1011.5
20260906041834 81 113 0.0 0.9 0.00 0.00 0.00 72 1011.4
20260906041334 81 113 0.9 1.7 0.00 0.00 0.00 72 1011.6
20260906040834 81 113 0.0 2.6 0.00 0.00 0.00 72 1011.5
20260906040334 81 113 0.0 0.9 0.00 0.00 0.00 72 1011.5
20260906035834 81 112 0.0 1.7 0.00 0.00 0.00 72 1011.5
20260906035334 81 112 0.0 0.9 0.00 0.00 0.00 73 1011.4
20260906034834 82 112 0.0 1.7 0.00 0.00 0.00 73 1011.4
20260906034334 82 112 0.9 1.7 0.00 0.00 0.00 72 1011.3
20260906033834 82 112 0.9 2.6 0.00 0.00 0.00 72 1011.4
20260906033334 82 124 0.0 0.9 0.00 0.00 0.00 72 1011.3
20260906032834 82 126 0.0 1.7 0.00 0.00 0.00 71 1011.3
20260906032334 82 126 0.0 1.7 0.00 0.00 0.00 71 1011.2
20260906031834 83 126 0.9 1.7 0.00 0.00 0.00 71 1011.1
20260906031334 83 123 0.9 1.7 0.00 0.00 0.00 71 1011.1
20260906030834 83 124 0.9 1.7 0.00 0.00 0.00 70 1011.1
20260906030334 83 124 0.9 1.7 0.00 0.00 0.00 70 1011.0
20260906025834 83 124 0.0 1.7 0.00 0.00 0.00 70 1011.1
20260906025334 83 124 0.0 0.9 0.00 0.00 0.00 70 1010.9
20260906024834 84 124 0.0 1.7 0.00 0.00 0.00 70 1010.9
20260906024334 84 124 0.9 3.5 0.00 0.00 0.00 70 1011.0
20260906023834 84 101 0.9 5.2 0.00 0.00 0.00 69 1010.9
20260906023334 84 101 0.9 1.7 0.00 0.00 0.00 68 1010.7
20260906022834 85 101 0.9 2.6 0.00 0.00 0.00 68 1010.8
20260906022334 85 98 0.9 3.5 0.00 0.00 0.00 67 1010.5
20260906021834 85 129 0.9 2.6 0.00 0.00 0.00 67 1010.3
20260906021334 85 107 0.9 3.5 0.00 0.00 0.00 66 1010.3
20260906020834 86 60 0.9 1.7 0.00 0.00 0.00 66 1010.1
20260906020334 86 107 0.0 2.6 0.00 0.00 0.00 66 1010.2
20260906015835 86 101 0.0 0.9 0.00 0.00 0.00 66 1010.1
20260906015334 86 101 0.0 1.7 0.00 0.00 0.00 66 1010.1
20260906014835 86 101 0.0 2.6 0.00 0.00 0.00 66 1010.1
20260906014335 86 82 0.0 0.9 0.00 0.00 0.00 66 1010.0
20260906013835 87 80 0.0 1.7 0.00 0.00 0.00 65 1010.0
20260906013335 87 43 0.0 0.9 0.00 0.00 0.00 65 1010.0
20260906012835 87 43 0.9 1.7 0.00 0.00 0.00 65 1010.0
20260906012335 87 91 0.0 1.7 0.00 0.00 0.00 65 1009.9
20260906011835 87 91 0.9 1.7 0.00 0.00 0.00 64 1009.7
20260906011335 88 92 0.9 2.6 0.00 0.00 0.00 64 1009.6
20260906010835 88 90 0.0 0.9 0.00 0.00 0.00 64 1009.6
20260906010335 88 90 0.9 1.7 0.00 0.00 0.00 63 1009.6
20260906005835 88 83 0.0 1.7 0.00 0.00 0.00 63 1009.6
20260906005335 89 86 0.0 0.9 0.00 0.00 0.00 62 1009.7
20260906004835 89 86 0.9 0.9 0.00 0.00 0.00 62 1009.6
20260906004335 89 90 0.9 4.3 0.00 0.00 0.00 61 1009.7
20260906003835 89 137 0.9 1.7 0.00 0.00 0.00 61 1009.7
20260906003335 89 137 0.9 2.6 0.00 0.00 0.00 61 1009.7
20260906002835 90 128 0.9 2.6 0.00 0.00 0.00 60 1009.6
20260906002335 90 55 0.0 1.7 0.00 0.00 0.00 60 1009.7
20260906001835 90 115 0.0 2.6 0.00 0.00 0.00 60 1009.6
20260906001335 90 119 0.9 2.6 0.00 0.00 0.00 60 1009.4
20260906000835 90 111 0.9 2.6 0.00 0.00 0.00 59 1009.5
20260906000335 90 112 0.9 2.6 0.00 0.00 0.00 59 1009.5
20260905235835 91 111 0.9 2.6 0.00 0.00 0.00 59 1009.4
20260905235335 91 106 1.7 1.7 0.00 0.00 0.00 59 1009.3
20260905234835 91 107 1.7 3.5 0.00 0.00 0.00 58 1009.4
20260905234335 91 101 1.7 3.5 0.00 0.00 0.00 57 1009.4
20260905233835 91 111 1.7 3.5 0.00 0.00 0.00 57 1009.4
20260905233335 91 104 1.7 3.5 0.00 0.00 0.00 57 1009.4
20260905232835 91 115 0.9 2.6 0.00 0.00 0.00 56 1009.5
20260905232335 92 117 0.9 2.6 0.00 0.00 0.00 56 1009.4
20260905231835 92 96 1.7 3.5 0.00 0.00 0.00 55 1009.4
20260905231335 92 122 0.9 2.6 0.00 0.00 0.00 56 1009.3
20260905230835 92 121 0.9 2.6 0.00 0.00 0.00 55 1009.3
20260905230335 92 135 0.9 3.5 0.00 0.00 0.00 55 1009.2
20260905225835 92 89 0.9 3.5 0.00 0.00 0.00 55 1009.3
20260905225335 92 148 0.9 7.0 0.00 0.00 0.00 55 1009.3
20260905224835 92 142 0.9 3.5 0.00 0.00 0.00 55 1009.3
20260905224335 92 154 1.7 3.5 0.00 0.00 0.00 55 1009.4
20260905223835 92 143 1.7 4.3 0.00 0.00 0.00 55 1009.4
20260905223335 92 163 1.7 3.5 0.00 0.00 0.00 55 1009.4
20260905222835 92 129 2.6 2.6 0.00 0.00 0.00 55 1009.6
20260905222335 92 117 2.6 8.7 0.00 0.00 0.00 55 1009.6
20260905221835 92 111 1.7 6.1 0.00 0.00 0.00 55 1009.7
20260905221335 92 128 1.7 2.6 0.00 0.00 0.00 56 1009.7
20260905220835 92 115 2.6 7.0 0.00 0.00 0.00 55 1009.9
20260905220335 92 148 1.7 5.2 0.00 0.00 0.00 55 1009.8
20260905215835 92 113 2.6 7.0 0.00 0.00 0.00 55 1010.0
20260905215335 92 215 2.6 6.1 0.00 0.00 0.00 56 1009.9
20260905214835 92 115 1.7 6.1 0.00 0.00 0.00 57 1010.0
20260905214335 92 123 1.7 4.3 0.00 0.00 0.00 58 1009.9
20260905213835 92 122 0.9 3.5 0.00 0.00 0.00 58 1010.0
20260905213335 91 184 1.7 4.3 0.00 0.00 0.00 58 1010.1
20260905212835 91 113 2.6 7.0 0.00 0.00 0.00 58 1010.2
20260905212335 91 123 2.6 7.0 0.00 0.00 0.00 58 1010.3
20260905211835 91 64 1.7 10.4 0.00 0.00 0.00 58 1010.4
20260905211335 91 132 1.7 7.0 0.00 0.00 0.00 58 1010.4
20260905210835 91 128 1.7 7.0 0.00 0.00 0.00 59 1010.6
20260905210335 91 126 2.6 3.5 0.00 0.00 0.00 58 1010.6
20260905205835 91 134 1.7 5.2 0.00 0.00 0.00 58 1010.6
20260905205335 91 162 1.7 3.5 0.00 0.00 0.00 58 1010.8
20260905204835 91 57 1.7 6.1 0.00 0.00 0.00 56 1010.9
20260905204335 91 118 2.6 6.1 0.00 0.00 0.00 57 1011.0
20260905203835 91 120 2.6 7.0 0.00 0.00 0.00 58 1011.2
20260905203335 91 110 1.7 11.3 0.00 0.00 0.00 59 1011.2
20260905202835 90 192 2.6 2.6 0.00 0.00 0.00 61 1011.1
20260905202335 90 114 3.5 12.2 0.00 0.00 0.00 62 1011.3
20260905201835 90 103 1.7 9.6 0.00 0.00 0.00 62 1011.3
20260905201335 90 37 1.7 4.3 0.00 0.00 0.00 63 1011.4
20260905200835 90 87 3.5 7.8 0.00 0.00 0.00 63 1011.5
20260905200335 89 103 4.3 10.4 0.00 0.00 0.00 63 1011.5
20260905195835 89 143 4.3 10.4 0.00 0.00 0.00 63 1011.7